Location: Aufkirchen
(47.9603°N, 11.3653°E)
Time: 07:07:17
(UTC+01:00)

Transit 4A - Pass Details

Date: 27 November 2020
Orbit: 864 x 980 km, 66.8° (Epoch: 25 January)

Event Time Altitude Azimuth Distance (km) Brightness Sun altitude
Rises 10:18:56 0° 249° (WSW) 3,642 11.0 17.0°
Reaches altitude 10° 10:21:46 10° 259° (WSW) 2,711 10.3 17.2°
Maximum altitude 10:27:25 33° 322° (NW) 1,594 8.8 17.6°
Drops below altitude 10° 10:33:10 10° 25° (NNE) 2,741 10.0 18.0°
Sets 10:36:03 0° 35° (NE) 3,688 10.7 18.1°
